Regional Weather Roundup
Issued by NWS

Home | Current Version | Previous Version | Text Only | Print | Product List | Glossary Off
Versions: 1 2 3 4 5 6 7 8 9 10 11 12 13 14 15 16 17 18 19 20 21 22 23 24 25 26 27 28 29 30 31 32 33 34 35 36 37 38 39 40 41 42 43 44 45 46 47 48 49 50

350
ASUS43 KDMX 270603
RWRIA

WEATHER ROUNDUP FOR IOWA
NATIONAL WEATHER SERVICE DES MOINES IA
100 AM CDT FRI MAY 27 2016

NOTE: "FAIR" INDICATES FEW OR NO CLOUDS BELOW 12,000 FEET WITH NO
SIGNIFICANT WEATHER AND/OR OBSTRUCTIONS TO VISIBILITY.

* - THESE STATIONS ARE NOT NWS STATIONS...THUS NOT UNDER NWS
QUALITY CONTROL.  THEY ALSO DO NOT REPORT WEATHER SUCH
AS PRECIPITATION OR FOG.

IAZ001>003-012>014-020>022-031>034-043>046-270700-
   NORTHWEST IOWA

CITY           SKY/WX    TMP DP  RH WIND       PRES   REMARKS
CARROLL *      CLOUDY    66  57  72 S31G43    29.72S
CHEROKEE *     CLOUDY    60  57  92 N5        29.84R
LE MARS *      CLOUDY    63  57  82 E5        29.83R
ORANGE CITY *  CLEAR     61  55  82 NE3       29.83S
SHELDON *      CLEAR     61  59  94 CALM      29.84R
SIOUX CITY     CLOUDY    63  54  72 S8        29.81R
6HR MIN TEMP:  62; 6HR MAX TEMP:  74;

SPENCER        CLOUDY    60  56  86 NE3       29.83S
6HR MIN TEMP:  59; 6HR MAX TEMP:  73;

STORM LAKE *   PTCLDY    61  55  82 NW9       29.84R
$$

IAZ055>058-069>071-079>083-090>094-270700-
   SOUTHWEST IOWA

CITY           SKY/WX    TMP DP  RH WIND       PRES   REMARKS
ATLANTIC *     CLOUDY    64  59  82 S14G20    29.79R
AUDUBON *      CLOUDY    64  57  77 S21G30    29.80R
CLARINDA *       N/A     63  61  94 MISG      29.82F
COUNCIL BLFS * CLEAR     63  59  88 S24       29.78F
CRESTON *      CLOUDY    61  59  94 S20G25    29.84F
HARLAN  *      CLOUDY    63  59  88 S16G26    29.81R
LAMONI         CLOUDY    61  60  97 W7        29.86F
6HR MIN TEMP:  61; 6HR MAX TEMP:  64; 6HR PCP:  0.60;

RED OAK *      CLOUDY    63  61  94 SE22G33   29.78S
SHENANDOAH *   CLOUDY    63  63 100 SE26G39   29.74F
$$

IAZ047>049-059>061-072>074-084-270700-
   CENTRAL IOWA

CITY           SKY/WX    TMP DP  RH WIND       PRES   REMARKS
AMES           CLOUDY    66  57  72 S21G32    29.77S
6HR MIN TEMP:  62; 6HR MAX TEMP:  73; 6HR PCP:  0.16;

ANKENY *       CLOUDY    66  59  77 SW16      29.78F
BOONE *        CLOUDY    66  57  72 S16G29    29.76F
CHARITON *     CLOUDY    63  61  94 SW8       29.85F
DES MOINES     CLOUDY    65  58  78 SW10      29.81F
6HR MIN TEMP:  63; 6HR MAX TEMP:  69; 6HR PCP:  0.64;

GRINNELL*      DRIZZLE   63  58  84 S10       29.85R
KNOXVILLE *    CLOUDY    63  61  94 SW8       29.83F
MARSHALLTOWN   CLOUDY    66  57  72 E6        29.80F
6HR MIN TEMP:  64; 6HR MAX TEMP:  74; 6HR PCP:  0.11;

NEWTON *       CLOUDY    64  61  88 SW13      29.82F
PELLA *        LGT RAIN  63  61  94 S6        29.86R
PERRY *          N/A     64  59  82 S35       29.76F
$$

IAZ004>006-015-016-023>025-035-036-270700-
   NORTH CENTRAL IOWA

CITY           SKY/WX    TMP DP  RH WIND       PRES   REMARKS
ALGONA *       CLOUDY    64  59  82 E6        29.83R
CLARION *      CLOUDY    64  57  77 SE13      29.81S
ESTHERVILLE    CLOUDY    61  57  87 NW7       29.84R
6HR MIN TEMP:  60; 6HR MAX TEMP:  71;

FORT DODGE *   CLOUDY    64  54  68 SE7       29.80S
MASON CITY     CLOUDY    63  57  81 S5        29.86R
6HR MIN TEMP:  63; 6HR MAX TEMP:  74;

FOREST CITY *  CLEAR     61  55  82 E3        29.85S
WEBSTER CITY * CLOUDY    64  57  77 SE8       29.78F
IOWA FALLS *     N/A     63  59  88 SE6       29.84F
$$

IAZ007>011-017>019-026>030-037>042-050>054-066-270700-
   NORTHEAST IOWA

CITY           SKY/WX    TMP DP  RH WIND       PRES   REMARKS
CEDAR RAPIDS   CLOUDY    64  59  83 NW5       29.84F
6HR MIN TEMP:  64; 6HR MAX TEMP:  78; 6HR PCP: TRACE;

CHARLES CITY * PTCLDY    64  61  88 E8        29.86S
CLINTON *      CLOUDY    70  65  84 N7        29.86S
DECORAH *      CLOUDY    66  59  77 CALM      29.87S
DUBUQUE        CLOUDY    69  61  75 N6        29.85F
6HR MIN TEMP:  66; 6HR MAX TEMP:  77;

MONTICELLO *   CLOUDY    70  59  68 NE5       29.84F
OELWEIN *      CLOUDY    64  59  82 CALM      29.87F
WATERLOO       CLOUDY    64  58  80 S3        29.85S
6HR MIN TEMP:  64; 6HR MAX TEMP:  77; 6HR PCP: TRACE;

$$

IAZ064-065-067-068-078-270700-
   EAST CENTRAL IOWA

CITY           SKY/WX    TMP DP  RH WIND       PRES   REMARKS
DAVENPORT      CLOUDY    70  64  81 W6        29.86F
6HR MIN TEMP:  70; 6HR MAX TEMP:  82;

IOWA CITY      CLOUDY    68  58  70 S9        29.88R
6HR MIN TEMP:  68; 6HR MAX TEMP:  81;

MT. PLEASANT * LGT RAIN  66  64  94 SW15      29.89R
MUSCATINE *    CLOUDY    68  57  68 SW6       29.86S
QUAD CITIES    CLOUDY    72  62  71 W5        29.85S
6HR MIN TEMP:  72; 6HR MAX TEMP:  83;

$$

IAZ062-063-075>077-085>089-095>099-270700-
   SOUTHEAST IOWA

CITY           SKY/WX    TMP DP  RH WIND       PRES   REMARKS
BURLINGTON     TSTM      65  63  93 W10       29.90R
6HR MIN TEMP:  65; 6HR MAX TEMP:  77; 6HR PCP:  0.08;

FAIRFIELD *      N/A    N/A N/A N/A MISG        N/A
FORT MADISON * LGT RAIN  63  61  94 W6        29.92S
KEOKUK *       LGT RAIN  64  63  94 VRB5G12   29.90F
OSKALOOSA *    LGT RAIN  63  59  88 S8        29.88S
OTTUMWA        LGT RAIN  63  60  90 S6        29.86F
6HR MIN TEMP:  63; 6HR MAX TEMP:  75; 6HR PCP:  0.08;

WASHINGTON *   LGT RAIN  64  64 100 SW20G29   29.88S
$$

ABBREVIATIONS USED IN REMARKS
   TC - TEMPERATURES IN CELSIUS
  WCI - WIND CHILL INDEX
   HX - HEAT INDEX
  VSB - VISIBILITY
$$





USA.gov is the U.S. government's official web portal to all federal, state and local government web resources and services.